When you browse on this site, cookies collect data to enhance your experience and personalize the content and advertising you see.
Visit our Privacy Policy to learn more. By continuing to use the site, you agree to this use of cookies and data.
  • In Hungary
  • List of Countries
  • For 7 days
  • Water Temperature
  • Satellite Maps
  • Weather Map
  • News
  • Weather Widgets
  • user-avatar
    Login

    Hourly Weather Koszwaly

    Today, 17 January, Thursday

    Time Temperature Precipitation Wind Pressure Humidity
    00:00 +2°C° 0 mm 8 mps 748 mmHg 84%
    01:00 +3°C° 0 mm 7 mps 748 mmHg 83%
    02:00 +2°C° 0.1 mm 7 mps 747 mmHg 83%
    03:00 +1°C° 0.1 mm 8 mps 746 mmHg 83%
    04:00 +1°C° 0.1 mm 8 mps 746 mmHg 83%
    05:00 +1°C° 0.2 mm 8 mps 745 mmHg 82%
    06:00 +1°C° 0.2 mm 8 mps 745 mmHg 82%
    07:00 +1°C° 0 mm 8 mps 744 mmHg 81%
    08:00 +1°C° 0.1 mm 8 mps 745 mmHg 80%
    09:00 +2°C° 0.1 mm 8 mps 745 mmHg 78%
    10:00 +2°C° 0.1 mm 8 mps 745 mmHg 77%
    11:00 +2°C° 0 mm 8 mps 745 mmHg 74%
    12:00 +4°C° 0 mm 8 mps 746 mmHg 72%
    13:00 +4°C° 0 mm 8 mps 746 mmHg 70%
    14:00 +2°C° 0 mm 8 mps 746 mmHg 71%
    15:00 +3°C° 0 mm 7 mps 746 mmHg 72%
    16:00 +3°C° 0 mm 6 mps 747 mmHg 73%
    17:00 +2°C° 0 mm 6 mps 747 mmHg 74%
    18:00 +2°C° 0 mm 6 mps 747 mmHg 75%
    19:00 +2°C° 0 mm 6 mps 747 mmHg 77%
    20:00 +2°C° 0 mm 6 mps 747 mmHg 77%
    21:00 +1°C° 0 mm 6 mps 747 mmHg 77%
    22:00 +1°C° 0 mm 6 mps 747 mmHg 77%
    23:00 +1°C° 0.1 mm 5 mps 747 mmHg 80%

    Tomorrow, 18 January, Friday

    Time Temperature Precipitation Wind Pressure Humidity
    00:00 +1°C° 0.1 mm 5 mps 747 mmHg 84%
    01:00 0°C° 0.1 mm 4 mps 747 mmHg 87%
    02:00 0°C° 0.8 mm 5 mps 748 mmHg 87%
    03:00 -1°C° 0.8 mm 6 mps 748 mmHg 88%
    04:00 -1°C° 0.8 mm 8 mps 748 mmHg 88%
    05:00 -1°C° 0.5 mm 8 mps 749 mmHg 83%
    06:00 -2°C° 0.5 mm 8 mps 750 mmHg 78%
    07:00 -2°C° 0.5 mm 8 mps 751 mmHg 73%
    08:00 -2°C° 0 mm 8 mps 753 mmHg 72%
    09:00 -3°C° 0 mm 7 mps 754 mmHg 71%
    10:00 -3°C° 0 mm 7 mps 755 mmHg 69%
    11:00 -2°C° 0 mm 7 mps 756 mmHg 69%
    12:00 -2°C° 0 mm 7 mps 757 mmHg 68%
    13:00 -2°C° 0 mm 7 mps 757 mmHg 67%
    14:00 -2°C° 0 mm 6 mps 758 mmHg 68%
    15:00 -3°C° 0 mm 6 mps 758 mmHg 68%
    16:00 -2°C° 0 mm 5 mps 759 mmHg 69%
    17:00 -2°C° 0 mm 5 mps 759 mmHg 69%
    18:00 -4°C° 0 mm 5 mps 760 mmHg 68%
    19:00 -3°C° 0 mm 4 mps 760 mmHg 68%
    20:00 -4°C° 0 mm 5 mps 760 mmHg 71%
    21:00 -4°C° 0 mm 5 mps 761 mmHg 73%
    22:00 -4°C° 0 mm 5 mps 761 mmHg 76%
    23:00 -4°C° 0 mm 5 mps 761 mmHg 80%

    Day after tomorrow, 19 January, Saturday

    Time Temperature Precipitation Wind Pressure Humidity
    00:00 -3°C° 0 mm 4 mps 762 mmHg 84%
    01:00 -3°C° 0 mm 4 mps 762 mmHg 88%
    02:00 -3°C° 0 mm 4 mps 762 mmHg 87%
    03:00 -3°C° 0 mm 4 mps 762 mmHg 86%
    04:00 -3°C° 0 mm 4 mps 762 mmHg 86%
    05:00 -3°C° 0 mm 4 mps 762 mmHg 84%
    06:00 -3°C° 0 mm 4 mps 763 mmHg 82%
    07:00 -3°C° 0 mm 4 mps 763 mmHg 80%
    08:00 -2°C° 0 mm 5 mps 763 mmHg 78%
    09:00 -2°C° 0 mm 5 mps 763 mmHg 77%
    10:00 -1°C° 0 mm 5 mps 764 mmHg 76%
    11:00 -1°C° 0 mm 5 mps 764 mmHg 76%
    12:00 0°C° 0 mm 5 mps 764 mmHg 76%
    13:00 0°C° 0 mm 5 mps 764 mmHg 76%
    14:00 0°C° 0 mm 5 mps 763 mmHg 76%
    15:00 0°C° 0 mm 5 mps 763 mmHg 77%
    16:00 -1°C° 0 mm 4 mps 763 mmHg 77%
    17:00 -1°C° 0 mm 4 mps 764 mmHg 80%
    18:00 -1°C° 0 mm 4 mps 764 mmHg 82%
    19:00 -2°C° 0 mm 4 mps 764 mmHg 85%
    20:00 -2°C° 0 mm 4 mps 764 mmHg 86%
    21:00 -3°C° 0 mm 4 mps 764 mmHg 86%
    22:00 -3°C° 0 mm 4 mps 764 mmHg 87%
    23:00 -3°C° 0 mm 4 mps 764 mmHg 86%

    20 January, Sunday

    Time Temperature Precipitation Wind Pressure Humidity
    00:00 -3°C° 0 mm 4 mps 764 mmHg 84%
    01:00 -2°C° 0 mm 3 mps 764 mmHg 83%
    02:00 -2°C° 0 mm 3 mps 763 mmHg 82%
    03:00 -2°C° 0 mm 3 mps 763 mmHg 82%
    04:00 -2°C° 0 mm 3 mps 763 mmHg 82%
    05:00 -2°C° 0 mm 3 mps 763 mmHg 82%
    06:00 -4°C° 0 mm 3 mps 763 mmHg 82%
    07:00 -4°C° 0 mm 3 mps 763 mmHg 82%
    08:00 -2°C° 0 mm 3 mps 763 mmHg 81%
    09:00 -2°C° 0 mm 3 mps 763 mmHg 79%
    10:00 -2°C° 0 mm 4 mps 763 mmHg 78%
    11:00 -2°C° 0 mm 4 mps 763 mmHg 77%
    12:00 -1°C° 0 mm 4 mps 763 mmHg 76%
    13:00 -1°C° 0 mm 4 mps 763 mmHg 75%
    14:00 -1°C° 0 mm 4 mps 763 mmHg 78%
    15:00 -1°C° 0 mm 4 mps 763 mmHg 81%
    16:00 -2°C° 0 mm 4 mps 763 mmHg 84%
    17:00 -2°C° 0 mm 4 mps 763 mmHg 85%
    18:00 -2°C° 0 mm 4 mps 763 mmHg 86%
    19:00 -2°C° 0 mm 4 mps 763 mmHg 87%
    20:00 -2°C° 0.1 mm 4 mps 764 mmHg 87%
    21:00 -1°C° 0.1 mm 3 mps 764 mmHg 88%
    22:00 -1°C° 0.1 mm 3 mps 764 mmHg 88%
    23:00 -1°C° 0.1 mm 3 mps 765 mmHg 85%

    21 January, Monday

    Time Temperature Precipitation Wind Pressure Humidity
    00:00 -1°C° 0.1 mm 2 mps 765 mmHg 81%
    01:00 -1°C° 0.1 mm 2 mps 765 mmHg 77%
    02:00 -1°C° 0 mm 2 mps 765 mmHg 75%
    03:00 -1°C° 0 mm 2 mps 765 mmHg 73%
    04:00 -2°C° 0 mm 2 mps 766 mmHg 70%
    05:00 0°C° 0 mm 1 mps 766 mmHg 70%
    06:00 0°C° 0 mm 1 mps 766 mmHg 70%
    07:00 -1°C° 0 mm 0 mps 766 mmHg 69%
    08:00 0°C° 0 mm 1 mps 766 mmHg 71%
    09:00 0°C° 0 mm 1 mps 767 mmHg 72%
    10:00 -1°C° 0 mm 2 mps 767 mmHg 73%
    11:00 -1°C° 0 mm 2 mps 767 mmHg 75%
    12:00 0°C° 0 mm 3 mps 767 mmHg 77%
    13:00 0°C° 0 mm 3 mps 767 mmHg 79%
    14:00 0°C° 0 mm 3 mps 766 mmHg 81%
    15:00 -1°C° 0 mm 3 mps 766 mmHg 83%
    16:00 -1°C° 0 mm 3 mps 766 mmHg 85%
    17:00 -1°C° 0 mm 3 mps 766 mmHg 83%
    18:00 -2°C° 0 mm 3 mps 766 mmHg 82%
    19:00 -3°C° 0 mm 4 mps 766 mmHg 80%
    20:00 -3°C° 0 mm 4 mps 765 mmHg 78%
    21:00 -3°C° 0 mm 4 mps 765 mmHg 76%
    22:00 -3°C° 0 mm 4 mps 765 mmHg 74%
    23:00 -3°C° 0 mm 4 mps 765 mmHg 76%

    22 January, Tuesday

    Time Temperature Precipitation Wind Pressure Humidity
    00:00 -3°C° 0 mm 4 mps 765 mmHg 78%
    01:00 -3°C° 0 mm 4 mps 764 mmHg 80%
    02:00 -3°C° 0.1 mm 4 mps 764 mmHg 82%
    03:00 -3°C° 0.1 mm 4 mps 764 mmHg 84%
    04:00 -3°C° 0.1 mm 4 mps 763 mmHg 86%
    05:00 -4°C° 0 mm 4 mps 763 mmHg 86%
    06:00 -4°C° 0 mm 4 mps 763 mmHg 86%
    07:00 -4°C° 0 mm 4 mps 763 mmHg 86%
    08:00 -4°C° 0 mm 4 mps 763 mmHg 82%
    09:00 -4°C° 0 mm 4 mps 763 mmHg 79%
    10:00 -3°C° 0 mm 4 mps 763 mmHg 76%
    11:00 -3°C° 0 mm 4 mps 762 mmHg 74%
    12:00 -2°C° 0 mm 4 mps 762 mmHg 72%
    13:00 -2°C° 0 mm 4 mps 762 mmHg 70%
    14:00 -2°C° 0 mm 4 mps 761 mmHg 74%
    15:00 -3°C° 0 mm 4 mps 761 mmHg 77%
    16:00 -4°C° 0 mm 3 mps 761 mmHg 81%
    17:00 -4°C° 0 mm 4 mps 761 mmHg 82%
    18:00 -4°C° 0 mm 4 mps 761 mmHg 83%
    19:00 -4°C° 0 mm 4 mps 761 mmHg 84%
    20:00 -5°C° 0 mm 4 mps 761 mmHg 84%
    21:00 -5°C° 0 mm 4 mps 761 mmHg 84%
    22:00 -5°C° 0 mm 4 mps 761 mmHg 85%
    23:00 -5°C° 0 mm 4 mps 760 mmHg 86%
    Show more